{"data":{"norad_id":43184,"epoch":"2026-05-24T18:38:23.907840Z","epoch_age_seconds":91531,"freshness":"FRESH","line1":"1 43184U 18014E   26144.77666560  .00554807  12608-3  15437-2 0  9995","line2":"2 43184  97.4405  75.0904 0005368 141.0353 219.1310 15.93716667457368","mean_motion":15.93716667,"eccentricity":0.0005368,"inclination_deg":97.4405,"raan_deg":75.0904,"arg_perigee_deg":141.0353,"mean_anomaly_deg":219.131,"bstar":0.0015437,"rev_number":45736,"period_min":90.354830931815,"perigee_km":288.31218613006,"apogee_km":295.47312997094,"semimajor_km":6670.0296580505,"source":"CELESTRAK","updated_at":"2026-05-25T13:38:13.531332Z"}}